This is the latest recevied weather packets stored in our database for station/object AK4NG. If no packets are shown the sender has not sent any weather packets the latest 10 day(s).
| Time | Temp. | Humidity | Pressure | Rain* | Wind** | Luminosity | Snow |
|---|---|---|---|---|---|---|---|
| 1777409956 | 21.67° C | 75% | 1019.9 hPa | 0 mm | - | 107 W/m² | - |
| 1777409651 | 21.67° C | 75% | 1019.8 hPa | 0 mm | - | 102 W/m² | - |
| 1777409347 | 21.67° C | 74% | 1020 hPa | 0 mm | - | 121 W/m² | - |
| 1777409043 | 21.67° C | 74% | 1020.4 hPa | 0 mm | - | 131 W/m² | - |
| 1777408740 | 22.22° C | 75% | 1020.5 hPa | 0 mm | - | 105 W/m² | - |
| 1777408435 | 22.22° C | 75% | 1020.3 hPa | 0 mm | - | 94 W/m² | - |
| 1777408130 | 22.22° C | 75% | 1020.2 hPa | 0 mm | - | 133 W/m² | - |
| 1777407826 | 22.22° C | 75% | 1020.6 hPa | 0 mm | - | 141 W/m² | - |
| 1777407523 | 22.22° C | 75% | 1020.6 hPa | 0 mm | - | 130 W/m² | - |
| 1777407223 | 22.22° C | 75% | 1020.7 hPa | 0 mm | - | 128 W/m² | - |
| 1777406918 | 21.67° C | 76% | 1020.9 hPa | 0 mm | - | 102 W/m² | - |
| 1777406613 | 22.22° C | 76% | 1021.1 hPa | 0 mm | - | 36 W/m² | - |
| 1777406309 | 22.22° C | 76% | 1021.5 hPa | 0 mm | - | 25 W/m² | - |
| 1777406008 | 22.22° C | 76% | 1021.6 hPa | 0 mm | - | 25 W/m² | - |
| 1777405705 | 22.78° C | 74% | 1021.6 hPa | 0 mm | - | 26 W/m² | - |
| 1777405401 | 22.78° C | 73% | 1021.4 hPa | 0 mm | - | 74 W/m² | - |
| 1777405099 | 22.78° C | 74% | 1021.3 hPa | 0 mm | - | 189 W/m² | - |
| 1777404798 | 23.33° C | 72% | 1021.1 hPa | 0 mm | - | 204 W/m² | - |
| 1777404495 | 23.33° C | 71% | 1021 hPa | 0 mm | - | 209 W/m² | - |
| 1777404191 | 23.33° C | 71% | 1021 hPa | 0 mm | - | 246 W/m² | - |
| 1777403887 | 23.33° C | 71% | 1020.8 hPa | 0 mm | - | 351 W/m² | - |
| 1777403587 | 23.33° C | 71% | 1020.9 hPa | 0 mm | - | 401 W/m² | - |
| 1777403287 | 23.89° C | 70% | 1021 hPa | 0 mm | - | 475 W/m² | - |
| 1777402987 | 23.33° C | 71% | 1020.9 hPa | 0 mm | - | 492 W/m² | - |
| 1777402683 | 23.33° C | 71% | 1021 hPa | 0 mm | - | 454 W/m² | - |
* Rain latest hour (hover to see other rain measurements)
** Current wind speed in m/s (hover to see current wind gust speed)